sat.trackr.live / text

‹ back to catalog

COSMOS 2463

NORAD 36519 · 2010-017A

PAYLOAD ACTIVE UNKNOWN

§ Identity

Operator
Country
CIS
Launch date
2010-04-27
Launch site
PLMSC
Launch vehicle
Mass (kg)
RCS (m²)
1.70

Purposes: nav

External: N2YO · Heavens-Above · Gunter

§ Orbital elements

Epoch: 2026-05-25T02:08:29.148864Z

Period
104.98 min
Inclination
82.9600°
Eccentricity
0.0035955
Mean motion
13.71664000 rev/d
Perigee alt
967.1 km
Apogee alt
1,020.1 km
Semi-major
7,371.7 km
B*
4.1680e-5
RAAN
266.6761°
Arg perigee
192.0014°
Mean anomaly
341.2704°
Rev number
80,476

§ Raw data

COSMOS 24631 36519U 10017A   26145.08922626  .00000053  00000+0  41680-4 0  99962 36519  82.9600 266.6761 0035955 192.0014 341.2704 13.71664000804763

JSON: /api/v1/satellites/36519 · /tle

For live sub-satellite position, see the globe view (requires WebGL).

§ Visibility from observer

Set your observer location to see the next 7 days of passes ≥ 10°. The values pass through the URL so the page stays shareable.

No JS? Fill the form by hand. The geolocation button needs JavaScript.

§ Radio — SatNOGS DB

ModeDescriptionDownlinkUplink
CW Mode U Tracking Beacon 399.840 MHz
FSK Mode V 3FSK 149.940 MHz

2 transmitters · refreshed weekly from db.satnogs.org